Regional Weather Roundup
Issued by NWS

Home | Current Version | Previous Version | Graphics & Text | Print | Product List | Glossary On
Versions: 1 2 3 4 5 6 7 8 9 10 11 12 13 14 15 16 17 18 19 20 21 22 23 24 25 26 27 28 29 30 31 32 33 34 35 36 37 38 39 40 41 42 43 44 45 46 47 48 49 50
341
ASUS44 KMEG 232100
RWRTN
TENNESSEE HOURLY STATE WEATHER ROUNDUP
NATIONAL WEATHER SERVICE MEMPHIS TN
400 PM CDT SUN APR 23 2017

TNZ002-004-019-021-049-052-054-088>092-232200-
WEST TENNESSEE

CITY           SKY/WX    TMP DP  RH WIND       PRES   REMARKS
MEMPHIS INTL   LGT RAIN  56  50  80 N9        29.94S
NWS MEMPHIS      N/A     56 N/A N/A MISG        N/A
JACKSON        RAIN      54  51  90 N8        29.91F
DYERSBURG      CLOUDY    57  51  80 SE3       29.93S
PARIS          CLOUDY    52  48  87 N12       29.91S
$$

TNZ008-025-027-028-033-062-065-066-232200-
NORTH MIDDLE TENNESSEE

CITY           SKY/WX    TMP DP  RH WIND       PRES   REMARKS
NASHVILLE      LGT RAIN  52  50  93 N8        29.84R
CLARKSVILLE    CLOUDY    54  48  80 N13       29.88F
SMYRNA         LGT RAIN  52  50  93 N10       29.84S
CROSSVILLE     CLOUDY    54  52  93 NE14      29.78F
$$

TNZ061-075-076-078-094-096-097-232200-
SOUTH MIDDLE TENNESSEE

CITY           SKY/WX    TMP DP  RH WIND       PRES   REMARKS
TULLAHOMA      CLOUDY    54  54 100 NW12      29.80S
COLUMBIA       CLOUDY   N/A N/A N/A VRB7      29.83S
$$

TNZ017-018-042-046-047-232200-
NORTHEAST TENNESSEE

CITY           SKY/WX    TMP DP  RH WIND       PRES   REMARKS
TRI CITIES     CLOUDY    50  48  93 NE6       29.87F
$$

TNZ012-013-036-069-073-074-232200-
CENTRAL EAST TENNESSEE

CITY           SKY/WX    TMP DP  RH WIND       PRES   REMARKS
KNOXVILLE      RAIN      57  55  93 N13       29.78R FOG
OAK RIDGE      RAIN      57  54  89 VRB6      29.81R FOG
GATLINBURG     PTSUNNY   55  54  94 VRB7      29.78R
$$

TNZ083-085-099-232200-
SOUTHEAST TENNESSEE

CITY           SKY/WX    TMP DP  RH WIND       PRES   REMARKS
CHATTANOOGA    CLOUDY    62  59  90 N9        29.74F
$$

SKY/WX REPORTED AS FAIR MEANS FEW OR NO CLOUDS BELOW
12 THOUSAND FEET.





USA.gov is the U.S. government's official web portal to all federal, state and local government web resources and services.